Regional Weather Roundup
Issued by NWS

Home | Current Version | Previous Version | Graphics & Text | Print | Product List | Glossary Off
Versions: 1 2 3 4 5 6 7 8 9 10 11 12 13 14 15 16 17 18 19 20 21 22 23 24 25 26 27 28 29 30 31 32 33 34 35 36 37 38 39 40 41 42 43 44 45 46 47 48 49 50

000
ASUS43 KIND 252009
RWRIN

WEATHER ROUNDUP FOR INDIANA
NATIONAL WEATHER SERVICE INDIANAPOLIS IN
400 PM EDT SAT APR 25 2015

NOTE: "FAIR" INDICATES FEW OR NO CLOUDS BELOW 12,000 FEET WITH NO
SIGNIFICANT WEATHER AND/OR OBSTRUCTIONS TO VISIBILITY.

* - STATION DOES NOT REPORT WEATHER SUCH AS PRECIPITATION OR FOG.

+ - STATION NOT QUALITY CONTROLLED BY THE NATIONAL WEATHER SERVICE.
    USE DATA WITH CAUTION...ESPECIALLY DEWPOINT AND RELATIVE
    HUMIDITY OBSERVATIONS.

INZ001>003-010>013-019-020-252100-
NORTHWEST INDIANA

CITY           SKY/WX    TMP DP  RH WIND       PRES   REMARKS
GARY /AIRPORT/ LGT RAIN  46  41  81 E17G29    29.73F
KNOX *+        CLOUDY    45  36  70 E14       29.73F
LA PORTE +     DRIZZLE   47  44  88 E12       29.76F
MICHIGAN CITY+ LGT RAIN  45  43  93 E6        29.77F
MONTICELLO +   LGT RAIN  44  43  95 NE15G24   29.66F
VALPARAISO     LGT RAIN  46  42  86 E21       29.72F

$$

LMZ046-743>745-252100-
SOUTHERN LAKE MICHIGAN

STATION/POSITION TIME  TEMP    WIND        PRES    WAVE
                       AIR SEA DIR/SP/G            HT
                 (UTC) (F)     (DEG/KT/KT) (MB)    (FT)
BURNS HARBOR     2000   45      70/ 15/ 19 1007.8F
MICHIGAN CITY    2000   44      60/ 12/ 15   N/A
5NW MICH CITY    2000   44 45   80/ 12/ 14   N/A     1

$$

INZ004-005-014>016-021>024-252100-
NORTH CENTRAL INDIANA

CITY           SKY/WX    TMP DP  RH WIND       PRES   REMARKS
ELKHART        LGT RAIN  46  39  76 E7        29.80R
GOSHEN         LGT RAIN  47  41  80 E7        29.79R
LOGANSPORT +   LGT RAIN  43  41  93 E16       29.68F
PERU/GRISSOM   LGT RAIN  44  42  90 E16       29.69F
ROCHESTER +    LGT RAIN  46  46 100 E16G22    29.73F
SOUTH BEND     RAIN      46  42  86 E7        29.80R FOG
WARSAW +       RAIN      43  43 100 E3        29.79R

$$

INZ006>009-017-018-025>027-252100-
NORTHEAST INDIANA

CITY           SKY/WX    TMP DP  RH WIND       PRES   REMARKS
ANGOLA *+      MOSUNNY   45  37  76 E13       29.78S
AUBURN +       RAIN      45  41  87 E10G18    29.78R
FORT WAYNE     RAIN      45  43  93 E9        29.77R FOG
HUNTINGTON +   RAIN      44  41  90 E7        29.76R

$$

INZ028-029-035-036-043>045-051>053-252100-
WEST CENTRAL INDIANA

CITY           SKY/WX    TMP DP  RH WIND       PRES   REMARKS
CRAWFORDSVL +  CLOUDY    46  40  82 E16       29.63F
GREENCASTLE +  CLOUDY    46  41  81 E13       29.63R
LAFAYETTE      CLOUDY    45  43  93 E20       29.64F
TERRE HAUTE    CLOUDY    51  49  92 NE15      29.58F FOG

$$

INZ030>032-037>040-046>048-054>057-064-065-252100-
CENTRAL INDIANA

CITY           SKY/WX    TMP DP  RH WIND       PRES   REMARKS
ANDERSON       LGT RAIN  41  39  93 E12G21    29.69F
CP ATTERBURY + CLOUDY    46  45  93 E14       29.63F FOG
COLUMBUS       LGT RAIN  46  45  93 E15       29.63F FOG
FRANKFORT +    DRIZZLE   45  45 100 NE17G24   29.66F
GREENWOOD *+   CLOUDY    45  39  81 E10G16    29.68R
INDIANAPOLIS   LGT RAIN  45  41  86 E20G28    29.61F FOG
-EAGLE CREEK   LGT RAIN  45  43  93 VRB7G20   29.64F
KOKOMO *+      CLOUDY    43  39  87 E18G25    29.71S
MARION +       LGT RAIN  43  39  85 NE20      29.69F
MT COMFORT *+  CLOUDY    43 N/A N/A E15       29.67R
SHELBYVILLE    LGT RAIN  46  41  82 E18G26    29.65R
ZIONSVILLE +   LGT RAIN  44  40  87 E12G24    29.65F

$$

INZ033-034-041-042-049-050-058-059-252100-
EAST CENTRAL INDIANA

CITY           SKY/WX    TMP DP  RH WIND       PRES   REMARKS
MUNCIE         RAIN      42  40  92 E20G26    29.65F FOG

$$

INZ060-061-067>069-081>083-085>088-252100-
SOUTHWEST INDIANA

CITY           SKY/WX    TMP DP  RH WIND       PRES   REMARKS
EVANSVILLE     PTSUNNY   73  58  59 W12       29.50F
HUNTINGBURG *+ PTSUNNY   61  57  88 NE12      29.53F
WASHINGTON +   DRIZZLE   54  50  87 NE9       29.55S

$$

INZ062-063-066-070>080-084-089>092-252100-
SOUTH CENTRAL AND SOUTHEAST INDIANA

CITY           SKY/WX    TMP DP  RH WIND       PRES   REMARKS
BEDFORD +      DRIZZLE   52  50  93 NE9       29.59
BLOOMINGTON    CLOUDY    51  49  92 E14       29.59F FOG
MADISON *+     CLOUDY    50  46  87 NE10G17   29.63R
NORTH VERNON + DRIZZLE   50  50 100 E14       29.62S
SEYMOUR +      LGT RAIN  52  52 100 NE10      29.60S

$$



USA.gov is the U.S. government's official web portal to all federal, state and local government web resources and services.